| time (UTC) | temp F | wind direction | speed MPH | gust MPH | rain 1hr in | rain 24hr in | rain mn in | humidity % | barometer mb |
| 20260901010049 | 82 | 150 | 0.0 | 0.0 | 0.00 | 0.00 | 0.00 | 85 | 1015.3 |
| 20260901010016 | 82 | 0.0 | 4.0 | 0.00 | 0.00 | 0.00 | 84 | 1017.8 | |
| 20260901004545 | 83 | 150 | 0.0 | 0.0 | 0.00 | 0.00 | 0.00 | 83 | 1015.3 |
| 20260901003045 | 84 | 150 | 0.0 | 1.0 | 0.00 | 0.00 | 0.00 | 81 | 1015.3 |
| 20260901003015 | 84 | 152 | 0.0 | 4.0 | 0.00 | 0.00 | 0.00 | 81 | 1017.9 |
| 20260901001554 | 85 | 150 | 0.0 | 2.0 | 0.00 | 0.00 | 0.00 | 78 | 1015.4 |
| 20260901000044 | 87 | 150 | 1.0 | 3.0 | 0.00 | 0.00 | 0.00 | 76 | 1015.5 |
| 20260901000015 | 87 | 152 | 1.0 | 6.0 | 0.00 | 0.00 | 0.00 | 76 | 1018.1 |
| 20260831234557 | 88 | 150 | 1.0 | 4.0 | 0.00 | 0.00 | 0.00 | 74 | 1015.5 |
| 20260831233048 | 89 | 150 | 2.0 | 5.0 | 0.00 | 0.00 | 0.00 | 73 | 1015.6 |
| 20260831233015 | 89 | 151 | 3.0 | 7.0 | 0.00 | 0.00 | 0.00 | 72 | 1018.3 |
| 20260831231539 | 89 | 150 | 3.0 | 5.0 | 0.00 | 0.00 | 0.00 | 70 | 1015.8 |
| 20260831230040 | 90 | 151 | 3.0 | 7.0 | 0.00 | 0.00 | 0.00 | 68 | 1018.7 |
| 20260831224537 | 91 | 158 | 5.0 | 6.0 | 0.00 | 0.00 | 0.00 | 66 | 1015.9 |
| 20260831223036 | 91 | 148 | 2.0 | 5.0 | 0.00 | 0.00 | 0.00 | 63 | 1016.1 |
| 20260831221537 | 92 | 168 | 2.0 | 5.0 | 0.00 | 0.00 | 0.00 | 63 | 1016.1 |
| 20260831220035 | 92 | 155 | 2.0 | 6.0 | 0.00 | 0.00 | 0.00 | 63 | 1016.2 |
| 20260831220015 | 92 | 174 | 3.0 | 8.0 | 0.00 | 0.00 | 0.00 | 63 | 1018.9 |
| 20260831214534 | 92 | 160 | 2.0 | 6.0 | 0.00 | 0.00 | 0.00 | 63 | 1016.2 |
| 20260831213032 | 92 | 196 | 2.0 | 4.0 | 0.00 | 0.00 | 0.00 | 62 | 1016.4 |
| 20260831213015 | 92 | 169 | 3.0 | 10.0 | 0.00 | 0.00 | 0.00 | 62 | 1019.1 |
| 20260831211533 | 92 | 142 | 4.0 | 7.0 | 0.00 | 0.00 | 0.00 | 62 | 1016.4 |
| 20260831210030 | 91 | 176 | 2.0 | 5.0 | 0.00 | 0.00 | 0.00 | 64 | 1016.4 |
| 20260831210015 | 91 | 156 | 3.0 | 10.0 | 0.00 | 0.00 | 0.00 | 64 | 1019.1 |
| 20260831204531 | 92 | 186 | 3.0 | 6.0 | 0.00 | 0.00 | 0.00 | 64 | 1016.5 |
| 20260831203034 | 92 | 153 | 3.0 | 7.0 | 0.00 | 0.00 | 0.00 | 64 | 1016.5 |
| 20260831203015 | 92 | 158 | 3.0 | 10.0 | 0.00 | 0.00 | 0.00 | 64 | 1019.2 |
| 20260831201527 | 91 | 195 | 3.0 | 6.0 | 0.00 | 0.00 | 0.00 | 63 | 1016.8 |
| 20260831200026 | 92 | 130 | 5.0 | 8.0 | 0.00 | 0.00 | 0.00 | 62 | 1016.9 |
| 20260831200015 | 92 | 177 | 4.0 | 10.0 | 0.00 | 0.00 | 0.00 | 62 | 1019.5 |
| 20260831194525 | 92 | 169 | 3.0 | 9.0 | 0.00 | 0.00 | 0.00 | 64 | 1017.0 |
| 20260831193039 | 91 | 201 | 2.0 | 7.0 | 0.00 | 0.00 | 0.00 | 66 | 1019.8 |
| 20260831193022 | 91 | 257 | 2.0 | 6.0 | 0.00 | 0.00 | 0.00 | 65 | 1017.2 |
| 20260831191518 | 91 | 229 | 2.0 | 7.0 | 0.00 | 0.00 | 0.00 | 66 | 1017.3 |
| 20260831190018 | 90 | 175 | 4.0 | 6.0 | 0.00 | 0.00 | 0.00 | 65 | 1017.5 |
| 20260831190015 | 90 | 201 | 2.0 | 9.0 | 0.00 | 0.00 | 0.00 | 65 | 1020.3 |
| 20260831184516 | 90 | 191 | 2.0 | 6.0 | 0.00 | 0.00 | 0.00 | 65 | 1017.6 |
| 20260831183015 | 90 | 207 | 3.0 | 10.0 | 0.00 | 0.00 | 0.00 | 67 | 1020.7 |
| 20260831181512 | 90 | 224 | 6.0 | 9.0 | 0.00 | 0.00 | 0.00 | 67 | 1018.1 |
| 20260831180016 | 89 | 174 | 4.0 | 10.0 | 0.00 | 0.00 | 0.00 | 67 | 1018.1 |
| 20260831174511 | 89 | 252 | 1.0 | 5.0 | 0.00 | 0.00 | 0.00 | 68 | 1018.3 |
| 20260831173015 | 89 | 224 | 3.0 | 15.0 | 0.00 | 0.00 | 0.00 | 69 | 1021.1 |
| 20260831173011 | 89 | 216 | 0.0 | 6.0 | 0.00 | 0.00 | 0.00 | 69 | 1018.3 |
| 20260831171504 | 88 | 203 | 4.0 | 14.0 | 0.00 | 0.00 | 0.00 | 69 | 1018.5 |
| 20260831170015 | 87 | 228 | 3.0 | 10.0 | 0.00 | 0.00 | 0.00 | 72 | 1021.3 |
| 20260831170004 | 87 | 222 | 2.0 | 6.0 | 0.00 | 0.00 | 0.00 | 72 | 1018.6 |
| 20260831164603 | 88 | 230 | 2.0 | 9.0 | 0.00 | 0.00 | 0.00 | 72 | 1018.9 |
| 20260831163059 | 87 | 205 | 2.0 | 7.0 | 0.00 | 0.00 | 0.00 | 72 | 1019.0 |
| 20260831163015 | 87 | 212 | 4.0 | 10.0 | 0.00 | 0.00 | 0.00 | 73 | 1021.6 |
| 20260831161604 | 87 | 221 | 5.0 | 9.0 | 0.00 | 0.00 | 0.00 | 70 | 1018.9 |
| 20260831160056 | 87 | 248 | 2.0 | 5.0 | 0.00 | 0.00 | 0.00 | 75 | 1018.8 |
| 20260831160021 | 87 | 213 | 3.0 | 8.0 | 0.00 | 0.00 | 0.00 | 75 | 1021.5 |
| 20260831154554 | 86 | 214 | 3.0 | 5.0 | 0.00 | 0.00 | 0.00 | 76 | 1018.8 |
| 20260831153047 | 86 | 198 | 2.0 | 5.0 | 0.00 | 0.00 | 0.00 | 76 | 1018.7 |
| 20260831153017 | 86 | 203 | 3.0 | 9.0 | 0.00 | 0.00 | 0.00 | 78 | 1021.5 |
| 20260831151542 | 85 | 232 | 3.0 | 6.0 | 0.00 | 0.00 | 0.00 | 78 | 1018.8 |
| 20260831150049 | 84 | 200 | 3.0 | 9.0 | 0.00 | 0.00 | 0.00 | 81 | 1018.7 |
| 20260831150017 | 84 | 205 | 3.0 | 9.0 | 0.00 | 0.00 | 0.00 | 81 | 1021.3 |
| 20260831144534 | 83 | 187 | 3.0 | 7.0 | 0.00 | 0.00 | 0.00 | 82 | 1018.6 |
| 20260831143030 | 82 | 182 | 3.0 | 7.0 | 0.00 | 0.00 | 0.00 | 83 | 1018.5 |
| 20260831143017 | 82 | 197 | 3.0 | 10.0 | 0.00 | 0.00 | 0.00 | 83 | 1021.1 |
| 20260831141527 | 81 | 185 | 3.0 | 6.0 | 0.00 | 0.00 | 0.00 | 84 | 1018.4 |
| 20260831140026 | 80 | 173 | 4.0 | 8.0 | 0.00 | 0.00 | 0.00 | 86 | 1018.3 |
| 20260831140017 | 80 | 192 | 3.0 | 10.0 | 0.00 | 0.00 | 0.00 | 86 | 1020.9 |
| 20260831134524 | 79 | 174 | 2.0 | 6.0 | 0.00 | 0.00 | 0.00 | 87 | 1018.5 |
| 20260831133018 | 78 | 189 | 4.0 | 8.0 | 0.00 | 0.00 | 0.00 | 89 | 1018.5 |
| 20260831131514 | 77 | 186 | 0.0 | 0.0 | 0.00 | 0.00 | 0.00 | 89 | 1018.5 |
| 20260831130016 | 76 | 0.0 | 0.0 | 0.00 | 0.00 | 0.00 | 92 | 1020.9 | |
| 20260831130013 | 76 | 178 | 0.0 | 0.0 | 0.00 | 0.00 | 0.00 | 92 | 1018.4 |
| 20260831124509 | 75 | 172 | 0.0 | 0.0 | 0.00 | 0.00 | 0.00 | 93 | 1018.2 |
| 20260831123021 | 74 | 0.0 | 0.0 | 0.00 | 0.00 | 0.00 | 94 | 1020.5 | |
| 20260831123006 | 74 | 169 | 0.0 | 0.0 | 0.00 | 0.00 | 0.00 | 94 | 1017.9 |
| 20260831121505 | 73 | 167 | 0.0 | 0.0 | 0.00 | 0.00 | 0.00 | 95 | 1017.7 |
| 20260831120036 | 73 | 0.0 | 0.0 | 0.00 | 0.00 | 0.00 | 96 | 1020.1 | |
| 20260831120006 | 73 | 165 | 0.0 | 0.0 | 0.00 | 0.00 | 0.00 | 96 | 1017.7 |
| 20260831114559 | 72 | 165 | 0.0 | 0.0 | 0.00 | 0.00 | 0.00 | 96 | 1017.7 |
| 20260831113056 | 72 | 161 | 0.0 | 0.0 | 0.00 | 0.00 | 0.00 | 96 | 1017.4 |
| 20260831113017 | 72 | 0.0 | 0.0 | 0.00 | 0.00 | 0.00 | 96 | 1019.9 | |
| 20260831111557 | 72 | 160 | 0.0 | 0.0 | 0.00 | 0.00 | 0.00 | 96 | 1017.5 |
| 20260831110100 | 72 | 160 | 0.0 | 0.0 | 0.00 | 0.00 | 0.00 | 95 | 1017.4 |
| 20260831110036 | 72 | 0.0 | 0.0 | 0.00 | 0.00 | 0.00 | 95 | 1020.0 | |
| 20260831104551 | 72 | 160 | 0.0 | 0.0 | 0.00 | 0.00 | 0.00 | 95 | 1017.3 |
| 20260831103050 | 73 | 160 | 0.0 | 0.0 | 0.00 | 0.00 | 0.00 | 95 | 1017.1 |
| 20260831103016 | 73 | 0.0 | 0.0 | 0.00 | 0.00 | 0.00 | 95 | 1019.7 | |
| 20260831101552 | 73 | 160 | 0.0 | 0.0 | 0.00 | 0.00 | 0.00 | 94 | 1017.1 |
| 20260831100041 | 73 | 160 | 0.0 | 0.0 | 0.00 | 0.00 | 0.00 | 93 | 1016.9 |
| 20260831100016 | 73 | 0.0 | 4.0 | 0.00 | 0.00 | 0.00 | 93 | 1019.5 | |
| 20260831094542 | 74 | 160 | 0.0 | 0.0 | 0.00 | 0.00 | 0.00 | 93 | 1016.8 |
| 20260831093039 | 74 | 160 | 0.0 | 0.0 | 0.00 | 0.00 | 0.00 | 93 | 1016.7 |
| 20260831093016 | 74 | 160 | 0.0 | 5.0 | 0.00 | 0.00 | 0.00 | 93 | 1019.3 |
| 20260831091546 | 74 | 160 | 1.0 | 3.0 | 0.00 | 0.00 | 0.00 | 93 | 1016.5 |
| 20260831090041 | 74 | 160 | 1.0 | 5.0 | 0.00 | 0.00 | 0.00 | 93 | 1019.1 |
| 20260831090036 | 74 | 160 | 1.0 | 2.0 | 0.00 | 0.00 | 0.00 | 93 | 1016.5 |
| 20260831084535 | 75 | 160 | 1.0 | 3.0 | 0.00 | 0.00 | 0.00 | 92 | 1016.5 |
| 20260831083034 | 75 | 159 | 1.0 | 3.0 | 0.00 | 0.00 | 0.00 | 92 | 1016.4 |
| 20260831083016 | 75 | 160 | 1.0 | 5.0 | 0.00 | 0.00 | 0.00 | 92 | 1019.0 |
| 20260831081536 | 75 | 159 | 1.0 | 3.0 | 0.00 | 0.00 | 0.00 | 92 | 1016.2 |
| 20260831080036 | 75 | 159 | 1.0 | 5.0 | 0.00 | 0.00 | 0.00 | 93 | 1018.8 |
| 20260831080033 | 75 | 159 | 1.0 | 3.0 | 0.00 | 0.00 | 0.00 | 93 | 1016.2 |
| 20260831074532 | 75 | 158 | 1.0 | 4.0 | 0.00 | 0.00 | 0.00 | 94 | 1016.2 |
| 20260831073031 | 74 | 158 | 2.0 | 3.0 | 0.00 | 0.00 | 0.00 | 94 | 1016.3 |
| 20260831073016 | 74 | 158 | 0.0 | 4.0 | 0.00 | 0.00 | 0.00 | 94 | 1019.0 |
| 20260831071537 | 74 | 156 | 0.0 | 0.0 | 0.00 | 0.00 | 0.00 | 94 | 1016.4 |
| 20260831070027 | 75 | 156 | 0.0 | 0.0 | 0.00 | 0.00 | 0.00 | 94 | 1016.5 |
| 20260831070016 | 75 | 157 | 0.0 | 2.0 | 0.00 | 0.00 | 0.00 | 94 | 1019.2 |
| 20260831064528 | 75 | 156 | 0.0 | 0.0 | 0.00 | 0.00 | 0.00 | 93 | 1016.5 |
| 20260831063022 | 76 | 156 | 0.0 | 1.0 | 0.00 | 0.00 | 0.00 | 93 | 1016.5 |
| 20260831063016 | 76 | 156 | 0.0 | 2.0 | 0.00 | 0.00 | 0.00 | 93 | 1019.3 |
| 20260831061520 | 76 | 156 | 1.0 | 2.0 | 0.00 | 0.00 | 0.00 | 92 | 1016.5 |
| 20260831060018 | 76 | 156 | 0.0 | 1.0 | 0.00 | 0.00 | 0.00 | 92 | 1016.5 |
| 20260831060016 | 76 | 156 | 0.0 | 2.0 | 0.00 | 0.00 | 0.00 | 92 | 1019.2 |
| 20260831054517 | 77 | 156 | 0.0 | 2.0 | 0.00 | 0.00 | 0.00 | 91 | 1016.6 |
| 20260831053020 | 78 | 156 | 0.0 | 5.0 | 0.00 | 0.00 | 0.00 | 90 | 1019.4 |
| 20260831053014 | 78 | 156 | 0.0 | 2.0 | 0.00 | 0.00 | 0.00 | 90 | 1016.6 |
| 20260831051513 | 78 | 156 | 0.0 | 2.0 | 0.00 | 0.00 | 0.00 | 89 | 1016.5 |
| 20260831050016 | 78 | 157 | 1.0 | 5.0 | 0.00 | 0.00 | 0.00 | 89 | 1019.1 |
| 20260831050010 | 78 | 156 | 1.0 | 3.0 | 0.00 | 0.00 | 0.00 | 89 | 1016.4 |
| 20260831044510 | 78 | 156 | 1.0 | 4.0 | 0.00 | 0.00 | 0.00 | 90 | 1016.5 |
| 20260831043016 | 78 | 154 | 1.0 | 3.0 | 0.00 | 0.00 | 0.00 | 91 | 1019.1 |
| 20260831043009 | 78 | 155 | 2.0 | 3.0 | 0.00 | 0.00 | 0.00 | 91 | 1016.5 |
| 20260831041509 | 77 | 155 | 2.0 | 3.0 | 0.00 | 0.00 | 0.00 | 93 | 1016.5 |
| 20260831040112 | 77 | 147 | 1.0 | 2.0 | 0.00 | 0.00 | 0.00 | 92 | 1016.5 |
| 20260831040016 | 77 | 148 | 0.0 | 2.0 | 0.00 | 0.00 | 0.00 | 92 | 1019.1 |
| 20260831034512 | 78 | 147 | 0.0 | 0.0 | 0.00 | 0.00 | 0.00 | 92 | 1016.6 |
| 20260831033016 | 78 | 148 | 0.0 | 3.0 | 0.00 | 0.00 | 0.00 | 91 | 1019.0 |
| 20260831033007 | 78 | 147 | 0.0 | 0.0 | 0.00 | 0.00 | 0.00 | 91 | 1016.5 |
| 20260831031507 | 79 | 147 | 0.0 | 0.0 | 0.00 | 0.00 | 0.00 | 90 | 1016.4 |
| 20260831030016 | 79 | 148 | 0.0 | 4.0 | 0.00 | 0.00 | 0.00 | 90 | 1019.0 |
| 20260831030007 | 79 | 147 | 0.0 | 3.0 | 0.00 | 0.00 | 0.00 | 90 | 1016.5 |
| 20260831024506 | 79 | 147 | 0.0 | 2.0 | 0.00 | 0.00 | 0.00 | 90 | 1016.4 |
| 20260831023056 | 80 | 148 | 1.0 | 4.0 | 0.00 | 0.00 | 0.00 | 90 | 1018.8 |
| 20260831023007 | 80 | 147 | 0.0 | 2.0 | 0.00 | 0.00 | 0.00 | 90 | 1016.3 |
| 20260831021504 | 80 | 147 | 1.0 | 4.0 | 0.00 | 0.00 | 0.00 | 90 | 1016.1 |
| 20260831020020 | 80 | 147 | 1.0 | 4.0 | 0.00 | 0.00 | 0.00 | 90 | 1018.6 |
| 20260831020003 | 80 | 146 | 1.0 | 3.0 | 0.00 | 0.00 | 0.00 | 90 | 1016.2 |
| 20260831014501 | 80 | 146 | 1.0 | 4.0 | 0.00 | 0.00 | 0.00 | 91 | 1016.0 |
| 20260831013108 | 80 | 145 | 0.0 | 0.0 | 0.00 | 0.00 | 0.00 | 89 | 1015.9 |
| 20260831013016 | 80 | 0.0 | 1.0 | 0.00 | 0.00 | 0.00 | 89 | 1018.4 | |
| 20260831011600 | 81 | 145 | 0.0 | 0.0 | 0.00 | 0.00 | 0.00 | 88 | 1015.8 |